TimeEDT,TemperatureF,Dew PointF,Humidity,Sea Level PressureIn,VisibilityMPH,Wind Direction,Wind SpeedMPH,Gust SpeedMPH,PrecipitationIn,Events,Conditions,WindDirDegrees,DateUTC
12:10 AM,66.2,53.6,64,29.98,10.0,NE,5.8,-,N/A,,Clear,40,2013-07-25 04:10:00
12:30 AM,64.4,55.4,73,29.98,10.0,NNE,5.8,-,N/A,,Clear,30,2013-07-25 04:30:00
12:50 AM,64.4,55.4,73,29.98,10.0,NE,6.9,-,N/A,,Clear,40,2013-07-25 04:50:00
1:10 AM,64.4,53.6,68,29.98,10.0,NE,4.6,-,N/A,,Clear,50,2013-07-25 05:10:00
1:30 AM,62.6,57.2,82,29.99,10.0,NE,3.5,-,N/A,,Clear,50,2013-07-25 05:30:00
1:50 AM,62.6,55.4,77,29.98,10.0,NE,9.2,-,N/A,,Clear,40,2013-07-25 05:50:00
2:10 AM,60.8,55.4,82,29.97,10.0,NNE,4.6,-,N/A,,Clear,20,2013-07-25 06:10:00
2:30 AM,60.8,55.4,82,29.97,10.0,NNE,4.6,-,N/A,,Clear,20,2013-07-25 06:30:00
2:50 AM,60.8,53.6,77,29.97,10.0,NNE,6.9,-,N/A,,Clear,20,2013-07-25 06:50:00
3:10 AM,60.8,51.8,72,29.98,10.0,NE,8.1,-,N/A,,Clear,40,2013-07-25 07:10:00
3:30 AM,60.8,53.6,77,29.98,10.0,NNE,3.5,-,N/A,,Clear,30,2013-07-25 07:30:00
3:50 AM,60.8,53.6,77,29.99,10.0,North,4.6,-,N/A,,Clear,360,2013-07-25 07:50:00
4:10 AM,59.0,51.8,77,29.98,10.0,Calm,Calm,-,N/A,,Clear,0,2013-07-25 08:10:00
4:30 AM,59.0,51.8,77,29.98,10.0,Calm,Calm,-,N/A,,Clear,0,2013-07-25 08:30:00
4:50 AM,57.2,51.8,82,29.99,10.0,Calm,Calm,-,N/A,,Clear,0,2013-07-25 08:50:00
5:10 AM,57.2,51.8,82,29.99,10.0,Calm,Calm,-,N/A,,Clear,0,2013-07-25 09:10:00
5:30 AM,57.2,51.8,82,30.00,10.0,Calm,Calm,-,N/A,,Clear,0,2013-07-25 09:30:00
5:50 AM,57.2,51.8,82,30.00,10.0,Calm,Calm,-,N/A,,Clear,0,2013-07-25 09:50:00
6:10 AM,57.2,51.8,82,30.00,10.0,Calm,Calm,-,N/A,,Clear,0,2013-07-25 10:10:00
6:30 AM,55.4,51.8,88,30.01,10.0,Calm,Calm,-,N/A,,Clear,0,2013-07-25 10:30:00
6:50 AM,55.4,51.8,88,30.01,10.0,Calm,Calm,-,N/A,,Clear,0,2013-07-25 10:50:00
7:10 AM,55.4,51.8,88,30.01,10.0,North,5.8,-,N/A,,Clear,350,2013-07-25 11:10:00
7:30 AM,57.2,51.8,82,30.00,10.0,Calm,Calm,-,N/A,,Clear,0,2013-07-25 11:30:00
7:50 AM,57.2,51.8,82,30.02,10.0,Calm,Calm,-,N/A,,Clear,0,2013-07-25 11:50:00
8:10 AM,57.2,51.8,82,30.02,10.0,Calm,Calm,-,N/A,,Clear,0,2013-07-25 12:10:00
8:30 AM,57.2,51.8,82,30.02,10.0,Calm,Calm,-,N/A,,Clear,0,2013-07-25 12:30:00
8:50 AM,57.2,53.6,88,30.02,10.0,North,5.8,-,N/A,,Clear,360,2013-07-25 12:50:00
9:10 AM,59.0,53.6,82,30.04,10.0,Calm,Calm,-,N/A,,Clear,0,2013-07-25 13:10:00
9:30 AM,60.8,53.6,77,30.03,10.0,North,5.8,-,N/A,,Clear,360,2013-07-25 13:30:00
9:50 AM,62.6,53.6,72,30.03,10.0,North,6.9,-,N/A,,Clear,10,2013-07-25 13:50:00
10:10 AM,62.6,53.6,72,30.04,10.0,North,5.8,-,N/A,,Clear,10,2013-07-25 14:10:00
10:30 AM,62.6,53.6,72,30.04,10.0,NNE,4.6,-,N/A,,Clear,20,2013-07-25 14:30:00
10:50 AM,64.4,53.6,68,30.05,10.0,Calm,Calm,-,N/A,,Clear,0,2013-07-25 14:50:00
11:10 AM,64.4,53.6,68,30.05,10.0,North,5.8,-,N/A,,Clear,350,2013-07-25 15:10:00
11:30 AM,66.2,55.4,68,30.05,10.0,NNW,4.6,-,N/A,,Clear,340,2013-07-25 15:30:00
11:50 AM,68.0,57.2,68,30.05,10.0,North,5.8,-,N/A,,Clear,360,2013-07-25 15:50:00
12:10 PM,68.0,60.8,78,30.05,10.0,NE,4.6,-,N/A,,Clear,40,2013-07-25 16:10:00
12:30 PM,69.8,59.0,68,30.05,10.0,North,4.6,-,N/A,,Clear,10,2013-07-25 16:30:00
12:50 PM,69.8,57.2,64,30.05,10.0,NNE,5.8,-,N/A,,Clear,30,2013-07-25 16:50:00
1:10 PM,71.6,59.0,64,30.04,10.0,NNW,4.6,-,N/A,,Scattered Clouds,330,2013-07-25 17:10:00
1:30 PM,71.6,57.2,60,30.04,10.0,Calm,Calm,-,N/A,,Scattered Clouds,0,2013-07-25 17:30:00
1:50 PM,71.6,57.2,60,30.04,10.0,Calm,Calm,-,N/A,,Mostly Cloudy,0,2013-07-25 17:50:00
2:10 PM,71.6,59.0,64,30.04,10.0,North,4.6,-,N/A,,Scattered Clouds,360,2013-07-25 18:10:00
2:30 PM,73.4,60.8,65,30.03,10.0,East,6.9,-,N/A,,Scattered Clouds,90,2013-07-25 18:30:00
2:50 PM,73.4,57.2,57,30.03,10.0,Calm,Calm,-,N/A,,Scattered Clouds,0,2013-07-25 18:50:00
3:10 PM,73.4,57.2,57,30.03,10.0,Calm,Calm,-,N/A,,Scattered Clouds,0,2013-07-25 19:10:00
3:30 PM,73.4,57.2,57,30.03,10.0,NE,3.5,-,N/A,,Mostly Cloudy,40,2013-07-25 19:30:00
3:50 PM,73.4,57.2,57,30.03,10.0,Calm,Calm,-,N/A,,Scattered Clouds,0,2013-07-25 19:50:00
4:10 PM,73.4,57.2,57,300.36,10.0,Calm,Calm,-,N/A,,Mostly Cloudy,0,2013-07-25 20:10:00
4:30 PM,73.4,59.0,61,30.02,10.0,Calm,Calm,-,N/A,,Overcast,0,2013-07-25 20:30:00
4:50 PM,75.2,59.0,57,30.02,10.0,Calm,Calm,-,N/A,,Overcast,0,2013-07-25 20:50:00
5:15 PM,73.4,60.8,65,30.03,10.0,Calm,Calm,-,N/A,,Mostly Cloudy,0,2013-07-25 21:15:00
5:35 PM,73.4,62.6,69,30.03,10.0,Calm,Calm,-,N/A,,Overcast,0,2013-07-25 21:35:00
5:55 PM,73.4,33.8,23,30.03,10.0,Calm,Calm,-,N/A,,Mostly Cloudy,0,2013-07-25 21:55:00
6:15 PM,73.4,64.4,73,30.03,10.0,Calm,Calm,-,N/A,,Clear,0,2013-07-25 22:15:00
6:35 PM,73.4,60.8,65,30.04,10.0,Calm,Calm,-,N/A,,Scattered Clouds,0,2013-07-25 22:35:00
6:55 PM,71.6,62.6,73,3.00,10.0,Calm,Calm,-,N/A,,Scattered Clouds,0,2013-07-25 22:55:00
7:15 PM,73.4,62.6,69,30.05,10.0,Calm,Calm,-,N/A,,Clear,0,2013-07-25 23:15:00
7:35 PM,71.6,60.8,69,30.06,10.0,Calm,Calm,-,N/A,,Scattered Clouds,0,2013-07-25 23:35:00
7:55 PM,71.6,60.8,69,30.06,10.0,Calm,Calm,-,N/A,,Scattered Clouds,0,2013-07-25 23:55:00
8:15 PM,71.6,60.8,69,30.06,10.0,Calm,Calm,-,N/A,,Scattered Clouds,0,2013-07-26 00:15:00
8:35 PM,69.8,60.8,73,30.05,10.0,Calm,Calm,-,N/A,,Clear,0,2013-07-26 00:35:00
8:55 PM,69.8,60.8,73,30.06,10.0,Calm,Calm,-,N/A,,Clear,0,2013-07-26 00:55:00
9:15 PM,69.8,60.8,73,-9999,10.0,Calm,Calm,-,N/A,,Clear,0,2013-07-26 01:15:00
9:35 PM,68.0,62.6,83,30.07,10.0,Calm,Calm,-,N/A,,Clear,0,2013-07-26 01:35:00
9:55 PM,66.2,60.8,83,-9999,10.0,Calm,Calm,-,N/A,,Mostly Cloudy,0,2013-07-26 01:55:00
10:15 PM,66.2,60.8,83,30.07,10.0,Calm,Calm,-,N/A,,Mostly Cloudy,0,2013-07-26 02:15:00
10:35 PM,66.2,60.8,83,-9999,10.0,Calm,Calm,-,N/A,,Clear,0,2013-07-26 02:35:00
10:55 PM,66.2,60.8,83,30.07,10.0,Calm,Calm,-,N/A,,Clear,0,2013-07-26 02:55:00
11:15 PM,64.4,60.8,88,30.07,10.0,Calm,Calm,-,N/A,,Clear,0,2013-07-26 03:15:00
11:35 PM,64.4,60.8,88,30.07,10.0,Calm,Calm,-,N/A,,Clear,0,2013-07-26 03:35:00
11:55 PM,64.4,60.8,88,30.07,10.0,Calm,Calm,-,N/A,,Clear,0,2013-07-26 03:55:00